Unicom:                    122.8

AWOS:                  118.275

Elevation           1458’ MSL

TPA:                   2500’ MSL

06/24:         5003’ L   75’ W

PAPI:       06/Left     24/Left

(Operate lights on unicom freq.)

Traffic Pattern: Left

Beacon: Sunset to Sunrise

Windsock: yes, lighted

Segmented Circle: No

 

Cleveland Center: 126.72/291.65

FSS: Altoona

[Source: ADDS]
METAR
KFKL 030409Z AUTO 32013G23KT 290V360 2SM -SN BR FEW004 BKN020 OVC025 M04/M06 A2992 RMK AO2 P0000 FZRANO =
KFKL 030344Z 0304/0324 31015G25KT 4SM -SHSN OVC025 TEMPO 0304/0306 1/2SM SHSN OVC015 FM031800 31015G20KT P6SM BKN035
TAF
KFKL 030344Z 0304/0324 31015G25KT 4SM -SHSN OVC025 TEMPO 0304/0306 1/2SM SHSN OVC015 FM031800 31015G20KT P6SM BKN035 =
[Source: ADDS]
METAR
KDUJ 030353Z AUTO 26015G22KT 10SM OVC037 M01/M09 A2983 RMK AO2 SLP121 T10061094 =
KDUJ 030408Z 0304/0324 26012G20KT P6SM BKN040 FM030500 31015G25KT 4SM -SHSN OVC025 TEMPO 0305/0307 1/2SM SN FM031800 31015G20KT P6SM BKN035
TAF
KDUJ 030408Z 0304/0324 26012G20KT P6SM BKN040 FM030500 31015G25KT 4SM -SHSN OVC025 TEMPO 0305/0307 1/2SM SN FM031800 31015G20KT P6SM BKN035 =

Welcome to Clarion County Airport.

We look forward to serving all of your aviation needs.


Clarion County Airport is a General Aviation, Business Class airport serving the Clarion County Area in Central Western Pennsylvania.  Our 5,003' asphalt runway and gps approaches are capable of serving most of the general aviation fleet in most weather conditions.


If you are planning a fuel stop while flying in Western Pennsylvania, consider paying us a visit. Our prices are some of the lowest in the state Check prices here ----> www.airnav.com/fuel and enter identifier KAXQ or see current prices below. We can have you fueled and taxiing out to the runway in about 10 minutes. Our current hours of operation are Monday- Saturday 8:00AM-4:00PM Sundays Unattended. Holiday closures are Christmas Day and Thanksgiving. If you require use of the facilities during the holidays or after hours please call ahead and someone will be there to assist you.


- Airport Manager -  


                             CURRENT FUEL PRICES       JET-A w/additive    $5.90           100LL     $6.43 


                              Self Service fueling available 24/7, credit card reader enabled. Center point fueling available upon request.

                                                           For after hours fueling assistance please contact airport manager Dave Everrett 814-221-1048